Location: Bühlhof
(48.7849°N, 8.6361°E)
Time: 20:52:05
(UTC+00:00)

SWAS - Pass Details

Date: 19 January 2026
Orbit: 539 x 542 km, 69.9° (Epoch: 15 February)

Event Time Altitude Azimuth Distance (km) Brightness Sun altitude
Rises 18:04:37 0° 332° (NNW) 2,705 8.1 -19.6°
Reaches altitude 10° 18:06:51 10° 336° (NNW) 1,809 7.1 -20.0°
Enters shadow 18:10:36 58° 40° (NE) 637 4.3 -20.6°
